Carmi, IL

9:25 AM CDT on March 27, 2017 (GMT -0500)
Carmi Municipal

Weather History for KCUL - June, 2014

Change the Weather History Date:

Wednesday, June 18, 2014

  Actual Average (KEHR) Record (KEHR)
Temperature  
Mean Temperature 81 °F -  
Max Temperature 92 °F 86 °F 99 °F (1944)
Min Temperature 71 °F 65 °F 47 °F (1941)
Cooling Degree Days 16    
Growing Degree Days 31 (Base 50)    
Moisture  
Dew Point 73 °F    
Average Humidity 75    
Maximum Humidity 97    
Minimum Humidity 54    
Precipitation  
Precipitation 0.00 in - - ()
Sea Level Pressure  
Sea Level Pressure 30.02 in    
Wind  
Wind Speed 8 mph (South)    
Max Wind Speed 20 mph    
Max Gust Speed 25 mph    
Visibility 10 miles    
Events      
Averages and records for this station are not official NWS values.
T = Trace of Precipitation, MM = Missing Value Source: NWS Daily Summary

Daily Weather History Graph

Daily Weather History Graph

Search for Another Location

Airport or City:

Trip Planner

Search our weather history database for the weather conditions in past years. The results will help you decide how hot, cold, wet, or windy it might be!

Date:

Astronomy

Jun. 18, 2014 Rise Set
Actual Time 5:29 AM CDT 8:18 PM CDT
Civil Twilight 4:57 AM CDT 8:49 PM CDT
Nautical Twilight 4:18 AM CDT 9:29 PM CDT
Astronomical Twilight 3:33 AM CDT 10:14 PM CDT
Moon No Moon Rise 11:47 AM CDT (6/18)
Length of Visible Light 15h 51m
Length of Day
14h 48m
Waning Gibbous, 62% of the Moon is Illuminated
Jun 18
Waning Gibbous
Jun 19
Last Quarter
Jun 27
New
Jul 5
First Quarter
Jul 12
Full

Hourly Weather History & Observations

Time (CDT) Temp. Heat Index Dew Point Humidity Pressure Visibility Wind Dir Wind Speed Gust Speed Precip Events Conditions
12:15 AM 77.2 °F - 72.3 °F 85% 30.02 in 10.0 mi South 6.9 mph - N/A   Clear
12:35 AM 76.3 °F - 72.1 °F 87% 30.02 in 10.0 mi South 4.6 mph - N/A   Clear
1:15 AM 74.3 °F - 72.5 °F 94% 30.01 in 10.0 mi South 5.8 mph - N/A   Clear
1:35 AM 74.7 °F - 72.3 °F 92% 30.01 in 10.0 mi South 5.8 mph - N/A   Clear
1:55 AM 74.8 °F - 72.1 °F 91% 30.01 in 10.0 mi South 6.9 mph - N/A   Clear
2:15 AM 74.8 °F - 72.0 °F 91% 30.01 in 10.0 mi South 5.8 mph - N/A   Clear
2:35 AM 74.3 °F - 71.8 °F 92% 30.02 in 10.0 mi South 5.8 mph - N/A   Clear
2:55 AM 74.7 °F - 72.0 °F 91% 30.01 in 10.0 mi South 5.8 mph - N/A   Clear
3:15 AM 74.1 °F - 71.6 °F 92% 30.02 in 10.0 mi South 4.6 mph - N/A   Clear
3:35 AM 73.4 °F - 71.6 °F 94% 30.02 in 10.0 mi South 4.6 mph - N/A   Clear
3:55 AM 72.9 °F - 71.4 °F 95% 30.02 in 10.0 mi South 3.5 mph - N/A   Clear
4:15 AM 72.5 °F - 70.9 °F 95% 30.02 in 10.0 mi South 3.5 mph - N/A   Clear
4:35 AM 71.6 °F - 70.3 °F 96% 30.03 in 10.0 mi South 4.6 mph - N/A   Clear
4:55 AM 71.6 °F - 70.7 °F 97% 30.02 in 7.0 mi SSE 4.6 mph - N/A   Clear
5:15 AM 71.6 °F - 70.3 °F 96% 30.03 in 7.0 mi South 3.5 mph - N/A   Clear
5:35 AM 72.1 °F - 70.9 °F 96% 30.03 in 10.0 mi South 3.5 mph - N/A   Clear
5:55 AM 72.5 °F - 70.9 °F 95% 30.03 in 7.0 mi South 3.5 mph - N/A   Clear
6:15 AM 72.7 °F - 71.6 °F 96% 30.03 in 7.0 mi South 4.6 mph - N/A   Clear
6:35 AM 73.9 °F - 72.1 °F 94% 30.03 in 7.0 mi South 4.6 mph - N/A   Clear
6:55 AM 76.1 °F - 72.9 °F 90% 30.04 in 10.0 mi SSE 3.5 mph - N/A   Clear
7:15 AM 77.7 °F - 73.6 °F 87% 30.04 in 10.0 mi SSE 4.6 mph - N/A   Clear
7:35 AM 79.2 °F - 74.3 °F 85% 30.05 in 10.0 mi South 5.8 mph - N/A   Clear
7:55 AM 81.5 °F 86.9 °F 73.6 °F 77% 30.05 in 10.0 mi SSW 9.2 mph - N/A   Clear
8:15 AM 82.4 °F 88.2 °F 73.4 °F 74% 30.06 in 10.0 mi SSW 9.2 mph - N/A   Clear
8:35 AM 83.3 °F 89.6 °F 73.6 °F 72% 30.06 in 10.0 mi SSW 10.4 mph - N/A   Clear
9:15 AM 85.1 °F 92.2 °F 73.6 °F 68% 30.06 in 10.0 mi SSW 12.7 mph - N/A   Clear
9:35 AM 86.0 °F 93.4 °F 73.6 °F 66% 30.06 in 10.0 mi SSW 12.7 mph - N/A   Clear
9:55 AM 86.5 °F 95.0 °F 74.5 °F 67% 30.06 in 10.0 mi SSW 11.5 mph - N/A   Clear
10:15 AM 87.3 °F 96.3 °F 74.5 °F 66% 30.06 in 10.0 mi SW 10.4 mph - N/A   Clear
10:35 AM 87.8 °F 96.6 °F 74.3 °F 64% 30.06 in 10.0 mi SW 11.5 mph - N/A   Clear
10:55 AM 88.2 °F 97.4 °F 74.5 °F 64% 30.05 in 10.0 mi SSW 11.5 mph 20.7 mph N/A   Clear
11:15 AM 88.5 °F 97.8 °F 74.3 °F 63% 30.05 in 10.0 mi SSW 10.4 mph 17.3 mph N/A   Scattered Clouds
11:35 AM 88.5 °F 96.8 °F 73.6 °F 61% 30.05 in 10.0 mi SW 12.7 mph - N/A   Scattered Clouds
11:55 AM 89.6 °F 99.8 °F 74.8 °F 62% 30.05 in 10.0 mi SSW 10.4 mph - N/A   Scattered Clouds
12:15 PM 90.5 °F 100.3 °F 74.5 °F 59% 30.05 in 10.0 mi SW 11.5 mph 20.7 mph N/A   Mostly Cloudy
12:35 PM 90.0 °F 99.6 °F 74.5 °F 60% 30.04 in 10.0 mi SSW 13.8 mph - N/A   Scattered Clouds
1:15 PM 90.5 °F 100.3 °F 74.5 °F 59% 30.03 in 10.0 mi SW 11.5 mph - N/A   Scattered Clouds
1:30 PM 91.4 °F 100.7 °F 73.9 °F 56% 30.03 in 10.0 mi SW 15.0 mph 19.6 mph N/A   Scattered Clouds
1:55 PM 91.8 °F 101.5 °F 74.3 °F 56% 30.02 in 10.0 mi SSW 12.7 mph - N/A   Scattered Clouds
2:35 PM 91.9 °F 100.7 °F 73.4 °F 54% 30.01 in 10.0 mi SSW 17.3 mph 20.7 mph N/A   Clear
2:55 PM 91.6 °F 101.7 °F 74.3 °F 57% 30.01 in 10.0 mi South 19.6 mph 25.3 mph N/A   Clear
3:35 PM 90.7 °F 98.5 °F 72.3 °F 55% 30.01 in 10.0 mi SSW 12.7 mph 18.4 mph N/A   Clear
3:55 PM 90.9 °F 100.0 °F 73.9 °F 57% 30.00 in 10.0 mi South 13.8 mph 19.6 mph N/A   Clear
4:15 PM 90.1 °F 100.0 °F 74.5 °F 60% 30.00 in 10.0 mi SSW 17.3 mph 20.7 mph N/A   Clear
4:35 PM 89.1 °F 97.0 °F 72.9 °F 59% 30.00 in 10.0 mi SSW 13.8 mph 20.7 mph N/A   Clear
4:55 PM 89.4 °F 98.9 °F 74.3 °F 61% 30.00 in 10.0 mi SSW 9.2 mph - N/A   Clear
5:15 PM 91.2 °F 99.1 °F 72.5 °F 54% 29.99 in 10.0 mi SSW 13.8 mph - N/A   Clear
5:35 PM 88.9 °F 96.1 °F 72.3 °F 58% 29.99 in 10.0 mi South 10.4 mph - N/A   Clear
5:55 PM 89.1 °F 97.0 °F 73.2 °F 59% 29.98 in 10.0 mi South 10.4 mph - N/A   Clear
6:15 PM 90.1 °F 98.9 °F 73.6 °F 58% 29.98 in 10.0 mi South 11.5 mph 17.3 mph N/A   Clear
6:35 PM 89.6 °F 97.7 °F 73.0 °F 58% 29.98 in 10.0 mi South 11.5 mph - N/A   Clear
6:55 PM 88.9 °F 96.6 °F 72.7 °F 59% 29.99 in 10.0 mi SSW 12.7 mph - N/A   Clear
7:15 PM 88.0 °F 95.1 °F 72.5 °F 60% 29.99 in 10.0 mi SSW 8.1 mph - N/A   Clear
7:35 PM 86.5 °F 93.8 °F 73.2 °F 64% 29.99 in 10.0 mi South 6.9 mph - N/A   Clear
7:55 PM 84.4 °F 91.0 °F 73.4 °F 69% 29.99 in 10.0 mi South 5.8 mph - N/A   Clear
8:15 PM 82.6 °F 88.6 °F 73.4 °F 74% 29.99 in 10.0 mi South 6.9 mph - N/A   Clear
8:35 PM 82.4 °F 87.9 °F 72.9 °F 73% 29.98 in 10.0 mi SSE 6.9 mph - N/A   Clear
8:55 PM 81.7 °F 87.1 °F 73.4 °F 76% 29.98 in 10.0 mi SSE 6.9 mph - N/A   Clear
9:15 PM 81.0 °F 86.2 °F 73.8 °F 79% 29.99 in 10.0 mi South 6.9 mph - N/A   Clear
9:35 PM 81.5 °F 87.2 °F 73.9 °F 78% 30.00 in 10.0 mi South 8.1 mph - N/A   Clear
9:55 PM 81.1 °F 86.6 °F 74.1 °F 79% 30.01 in 10.0 mi South 8.1 mph - N/A   Clear
10:15 PM 79.7 °F - 74.3 °F 83% 30.02 in 10.0 mi South 5.8 mph - N/A   Clear
10:35 PM 78.8 °F - 74.3 °F 86% 30.02 in 10.0 mi South 6.9 mph - N/A   Clear
10:55 PM 78.8 °F - 74.3 °F 86% 30.02 in 10.0 mi South 6.9 mph - N/A   Clear
11:15 PM 78.3 °F - 73.9 °F 87% 30.02 in 10.0 mi South 6.9 mph - N/A   Clear
11:35 PM 78.8 °F - 73.8 °F 84% 30.02 in 10.0 mi South 4.6 mph - N/A   Clear
11:55 PM 78.1 °F - 73.4 °F 85% 30.02 in 10.0 mi SSW 5.8 mph - N/A   Clear